Tracking 27402 objects as of 2-Jun-2023
HD Live streaming from Space Station
objects crossing your sky now

FENGYUN 1C DEB

Track FENGYUN 1C DEB now!
10-day predictions


NORAD ID: 41007
Int'l Code: 1999-025EXM
Perigee: 836.7 km
Apogee: 1,108.7 km
Inclination: 100.0 °
Period: 104.4 minutes
Semi major axis: 7343 km
RCS: Unknown
Launch date: May 10, 1999
Source: People's Republic of China (PRC)
Launch site: Taiyaun Space Center, China (TSC)

Note: This is SATELLITE DEBRIS
Your satellite tracking list
Your tracking list is empty




NASA's NSSDC Master Catalog

Two Line Element Set (TLE):
1 41007U 99025EXM 23137.13216303  .00001813  00000-0  15904-2 0  9996
2 41007  99.9509  97.6243 0185198 331.0404  28.0569 13.79523012444008
Source of the keplerian elements: AFSPC